Wind_Speed
20 21 22 23 22 21 20 18 18 18 17 16 15 14 12 12 12 10 9 8 7 7 7 7 7 7 7 7 6 6 6 7 7 7 8 9 10 11 12 13 14 15 15 15
19 20 22 22 22 20 19 18 17 16 15 14 12 12 11 11 11 10 9 7 7 7 7 7 7 7 7 7 7 7 7 7 7 7 8 9 10 11 12 13 14 14 15 16
19 21 21 21 20 19 18 17 16 15 14 13 12 11 10 10 10 9 8 8 7 7 7 7 7 7 7 7 7 7 7 7 7 7 8 9 10 11 12 13 14 14 15 15
19 20 20 20 19 19 17 16 15 13 13 12 12 10 10 9 9 8 7 7 7 7 7 7 6 7 7 7 7 7 7 7 7 8 9 10 10 11 12 13 14 14 15 15
19 19 20 19 18 18 16 16 15 14 12 11 11 11 10 9 8 7 6 7 7 8 7 7 6 6 6 7 7 7 7 7 8 8 9 10 11 11 12 13 13 14 15 15
18 19 19 18 18 17 16 14 13 12 12 11 12 11 10 9 7 6 6 7 7 7 7 7 6 6 7 7 7 7 7 8 8 9 9 10 11 11 12 13 13 13 14 15
17 17 17 17 17 16 15 14 13 12 12 12 12 11 10 8 7 6 6 7 7 7 7 6 6 6 7 7 7 7 7 8 8 9 9 10 10 11 12 12 13 13 14 15
16 16 16 16 16 15 14 14 14 13 12 11 10 10 8 7 7 6 6 6 6 6 6 6 6 6 7 7 7 7 7 8 8 9 9 10 10 11 12 12 13 13 14 15
15 15 15 15 15 14 14 13 12 12 11 10 10 8 8 7 7 6 6 6 6 6 5 6 6 6 7 7 8 8 8 9 9 9 10 10 10 11 11 12 13 13 14 15
14 14 14 14 14 13 13 12 12 11 10 10 9 9 8 7 6 5 5 5 5 5 5 6 6 6 7 8 8 9 9 10 10 10 11 11 11 12 12 12 13 13 14 14
13 12 12 12 12 12 12 10 9 9 9 9 8 9 8 7 6 5 5 5 5 5 6 6 6 7 7 8 8 9 10 11 11 11 11 11 12 12 13 13 13 14 14 15
11 11 10 10 10 10 10 9 8 8 8 8 8 8 8 7 6 5 5 5 5 5 6 7 8 8 8 9 9 10 10 11 11 12 12 12 13 13 14 14 14 14 15 15
10 10 9 8 9 9 8 8 7 8 7 7 7 7 8 7 7 6 6 5 5 5 6 8 8 9 9 10 10 11 11 12 12 13 13 13 14 14 14 15 15 15 15 16
9 9 9 9 8 8 8 8 8 7 7 7 7 8 8 7 8 7 7 6 6 7 7 8 9 10 10 11 12 12 12 13 13 14 14 15 15 15 16 16 16 16 16 16
9 9 9 9 9 8 8 8 8 8 8 8 8 8 8 8 8 8 8 8 8 8 9 10 10 11 11 12 13 13 14 14 15 15 16 16 16 17 17 17 17 17 17 17
9 9 9 9 9 9 8 8 8 8 8 9 9 9 9 9 9 9 9 9 9 10 11 11 12 12 13 13 14 14 15 16 16 17 17 18 18 18 19 19 19 19 19 19
10 10 10 10 10 10 9 8 9 10 10 10 10 10 10 10 10 10 10 11 11 12 12 13 13 14 15 15 15 16 17 17 18 18 19 19 20 20 20 21 21 21 21 21
11 11 11 11 11 12 10 10 10 11 11 11 10 11 11 11 11 11 12 12 13 14 14 15 16 16 17 17 18 19 19 20 20 20 21 21 22 22 23 23 23 23 23 23
12 13 12 13 13 12 11 11 11 11 12 12 12 12 12 13 13 13 14 14 15 16 17 18 18 19 19 20 20 21 21 22 22 23 23 24 24 25 25 25 26 26 26 26
13 13 14 14 14 13 12 13 13 13 13 13 14 14 14 15 15 15 16 17 18 18 19 20 21 21 22 22 23 23 24 24 25 25 26 26 27 28 28 29 29 29 29 29
15 15 15 15 16 15 15 14 15 15 15 15 15 16 16 17 17 18 19 19 20 21 21 22 23 23 24 24 25 26 26 27 28 28 29 29 30 31 31 32 32 32 32 32
17 17 17 17 18 17 17 17 17 17 17 17 18 18 19 19 20 20 21 22 22 23 24 25 25 26 27 27 28 29 29 30 30 31 32 33 33 34 34 34 34 35 35 34
19 18 19 19 19 19 19 19 19 20 20 20 20 21 21 22 23 23 24 24 25 26 27 28 28 29 30 30 31 32 32 33 34 35 36 36 37 37 38 38 37 37 37 37
21 21 21 22 22 22 22 22 22 22 22 23 23 24 24 25 25 26 27 27 28 29 30 31 32 32 33 34 35 36 36 37 37 38 38 39 39 40 40 40 40 41 41 41
23 24 24 24 24 25 25 25 25 25 25 26 26 27 27 28 29 29 30 31 32 33 34 35 35 36 37 38 39 39 40 40 40 41 41 42 42 43 43 44 44 44 44 44
26 27 27 27 27 27 27 27 27 28 28 28 29 30 31 31 32 33 34 35 36 36 37 38 39 40 41 42 42 43 43 43 44 45 45 46 46 46 46 47 47 46 46 46
Wind_Direction
179 181 183 186 189 191 195 198 202 204 207 209 211 214 218 221 223 226 226 228 229 231 231 228 230 237 246 252 258 274 283 289 297 304 312 319 324 329 331 334 337 340 341 341
170 173 177 180 183 185 189 192 195 195 197 200 203 207 211 219 221 220 223 226 227 228 227 225 231 236 247 256 265 276 283 288 296 306 313 319 324 327 331 333 338 342 344 344
161 168 171 174 176 178 181 188 190 189 191 195 198 202 206 214 217 218 222 224 217 220 224 226 231 241 250 256 264 273 281 288 298 308 314 319 323 327 331 334 337 342 345 346
156 161 165 167 170 174 177 180 182 183 185 192 192 194 197 201 203 208 213 213 210 212 217 226 236 245 252 258 266 274 279 289 300 309 314 317 321 325 331 334 337 341 344 346
152 156 159 162 167 170 170 173 176 177 178 176 176 178 189 192 193 198 203 205 209 208 216 227 238 247 256 265 271 278 282 290 297 302 308 313 318 324 329 334 337 340 343 346
149 154 157 160 162 162 161 163 166 169 169 170 173 177 188 194 194 197 199 202 205 212 221 232 243 254 262 268 275 281 286 293 296 299 303 309 315 322 328 333 337 340 343 346
145 150 154 155 156 157 160 159 160 164 169 175 176 183 188 193 198 199 199 200 206 216 226 238 251 260 265 270 275 280 289 296 298 300 302 307 315 322 327 332 336 339 342 344
143 148 153 155 155 159 163 162 163 170 179 180 180 186 189 192 194 194 196 200 208 218 232 248 258 261 265 270 275 279 286 293 298 301 302 305 312 319 325 331 335 337 340 342
144 148 153 155 156 158 160 161 164 168 173 177 184 186 187 189 192 193 198 206 214 223 237 251 260 268 272 276 278 280 284 288 294 299 303 306 310 316 321 326 331 335 339 341
139 143 151 155 157 157 157 155 158 164 171 182 186 192 192 191 189 193 202 213 224 234 246 253 262 270 277 283 285 284 285 288 291 297 303 306 309 314 317 322 326 330 334 336
137 141 147 153 157 159 160 160 165 172 175 180 190 197 193 194 194 201 213 222 233 244 252 258 266 273 280 287 292 292 290 290 292 297 301 304 307 310 312 316 320 324 328 330
146 148 153 156 161 162 165 167 171 180 188 189 195 199 199 200 206 213 226 236 243 253 262 269 274 281 287 291 293 294 295 295 295 296 299 302 304 307 309 311 314 317 320 323
155 156 160 165 169 173 178 183 188 192 196 199 207 207 207 209 213 221 233 247 259 268 275 281 287 288 294 295 294 292 294 295 295 296 297 299 301 303 305 307 309 311 313 317
167 169 173 181 186 187 192 197 200 202 206 209 213 215 215 220 225 231 242 255 266 275 282 289 295 295 296 298 296 294 294 296 296 297 297 297 299 300 302 304 306 307 309 311
181 183 187 193 197 198 202 206 208 209 210 216 219 220 222 229 235 241 249 258 267 274 279 285 292 295 297 298 297 295 296 297 297 296 296 296 297 298 299 300 301 303 305 306
197 197 199 203 205 209 212 214 215 216 217 222 227 231 233 239 247 254 260 266 272 278 282 286 291 294 296 297 297 296 296 297 297 296 296 295 296 296 296 297 298 299 301 302
206 208 212 216 218 222 222 222 225 226 228 232 235 237 241 248 255 262 269 272 277 282 286 288 290 292 295 296 297 298 297 296 296 296 296 296 295 294 294 295 296 297 298 299
217 218 222 226 230 233 230 230 233 235 237 238 239 241 246 251 258 264 269 274 278 281 284 286 289 291 294 295 296 296 295 295 294 294 294 295 295 295 294 294 294 294 295 295
227 228 230 232 236 239 237 237 239 242 242 242 244 246 250 256 261 266 270 275 278 280 283 286 288 290 292 293 294 294 294 294 293 293 293 294 294 294 293 293 293 293 293 293
232 233 236 237 240 242 241 242 245 249 249 250 251 254 257 262 266 270 273 276 280 283 285 287 289 290 291 292 293 293 293 293 292 292 292 293 294 294 293 292 292 292 291 291
236 237 240 242 244 247 247 248 251 253 256 257 259 261 263 267 270 272 275 277 280 283 285 287 289 290 291 292 293 293 293 292 292 292 292 293 294 294 293 292 291 290 289 288
241 244 244 246 248 250 251 253 254 257 259 261 263 265 267 269 271 273 276 278 281 284 286 288 289 290 291 292 293 293 294 293 292 291 292 292 293 293 292 291 290 289 287 286
245 247 249 250 252 254 255 257 258 260 262 265 267 268 270 272 274 275 277 279 281 283 285 287 288 289 290 291 291 292 293 293 293 292 292 292 293 293 292 290 288 286 285 285
248 250 252 254 255 256 258 260 262 264 265 267 268 270 272 274 275 277 279 280 282 283 285 286 287 288 289 289 290 291 291 292 292 292 292 292 292 292 291 289 287 285 284 282
252 254 256 257 258 259 260 263 264 266 267 269 271 272 274 275 277 279 280 282 283 284 285 286 287 288 288 288 289 290 291 291 292 292 292 292 292 291 290 288 286 284 283 282
255 256 258 259 261 262 263 265 267 268 270 272 273 275 276 278 279 281 282 283 285 286 287 288 288 288 288 288 289 290 290 291 291 291 292 292 291 291 290 289 286 283 282 281
Height
5787 5793 5798 5803 5808 5813 5818 5822 5826 5829 5832 5835 5837 5840 5842 5843 5845 5847 5848 5849 5850 5851 5852 5853 5854 5855 5855 5855 5855 5855 5855 5854 5853 5852 5850 5849 5847 5845 5843 5840 5838 5834 5831 5828
5789 5793 5797 5802 5807 5812 5816 5821 5824 5828 5831 5834 5836 5838 5840 5842 5844 5845 5846 5848 5849 5850 5851 5852 5853 5853 5854 5854 5854 5854 5853 5853 5852 5850 5849 5848 5846 5844 5842 5839 5836 5833 5830 5826
5790 5794 5798 5803 5807 5812 5816 5820 5823 5827 5830 5832 5835 5838 5839 5841 5842 5844 5845 5846 5847 5849 5850 5851 5852 5852 5853 5853 5853 5852 5852 5851 5850 5849 5848 5846 5844 5842 5840 5838 5835 5832 5828 5825
5791 5795 5799 5804 5808 5812 5816 5819 5823 5826 5829 5832 5835 5837 5838 5839 5841 5843 5844 5845 5846 5848 5849 5850 5850 5851 5851 5851 5851 5851 5850 5850 5849 5848 5847 5845 5843 5841 5839 5836 5834 5831 5827 5824
5794 5797 5801 5805 5809 5812 5816 5819 5823 5826 5829 5832 5834 5837 5838 5839 5840 5842 5843 5844 5845 5847 5848 5849 5849 5850 5850 5850 5850 5850 5849 5848 5847 5846 5845 5844 5842 5840 5838 5835 5832 5829 5826 5823
5797 5800 5803 5806 5810 5813 5817 5820 5823 5826 5829 5832 5833 5836 5837 5838 5840 5841 5842 5843 5844 5846 5847 5848 5848 5848 5849 5849 5848 5848 5847 5847 5846 5845 5844 5842 5841 5839 5836 5834 5831 5828 5825 5822
5800 5803 5805 5808 5811 5815 5818 5822 5825 5827 5830 5832 5833 5835 5837 5838 5839 5840 5841 5842 5843 5845 5846 5846 5847 5847 5847 5847 5847 5846 5846 5845 5844 5843 5842 5841 5839 5837 5835 5832 5830 5827 5824 5821
5803 5806 5808 5810 5813 5816 5818 5822 5826 5829 5830 5831 5833 5835 5837 5837 5838 5839 5840 5841 5843 5844 5844 5845 5845 5845 5845 5845 5845 5844 5844 5843 5842 5841 5840 5839 5837 5835 5833 5831 5828 5826 5823 5820
5805 5808 5810 5812 5814 5817 5819 5822 5825 5828 5830 5832 5833 5835 5836 5836 5838 5839 5839 5840 5841 5842 5843 5843 5844 5844 5843 5843 5843 5842 5842 5841 5840 5839 5838 5837 5835 5833 5831 5829 5827 5825 5822 5819
5807 5810 5811 5813 5816 5818 5821 5822 5825 5828 5829 5832 5833 5834 5835 5836 5837 5838 5838 5839 5840 5841 5842 5842 5842 5842 5842 5841 5841 5840 5839 5839 5838 5837 5836 5835 5833 5831 5830 5828 5825 5823 5821 5818
5809 5812 5814 5815 5817 5819 5822 5824 5825 5827 5829 5831 5832 5835 5834 5835 5836 5837 5837 5838 5839 5839 5840 5840 5840 5840 5840 5839 5839 5838 5837 5836 5835 5835 5834 5832 5831 5829 5828 5826 5824 5822 5819 5817
5811 5813 5815 5817 5818 5820 5822 5824 5826 5828 5829 5830 5832 5836 5833 5834 5835 5836 5836 5836 5837 5837 5838 5838 5838 5838 5837 5837 5836 5836 5835 5834 5833 5832 5831 5830 5828 5827 5825 5824 5822 5820 5817 5815
5812 5814 5816 5818 5821 5821 5822 5823 5825 5826 5828 5829 5831 5834 5832 5833 5833 5834 5835 5835 5835 5836 5836 5836 5835 5835 5835 5834 5834 5833 5832 5831 5830 5829 5828 5827 5825 5824 5822 5821 5819 5817 5815 5813
5812 5814 5817 5819 5819 5820 5821 5822 5824 5825 5826 5828 5829 5830 5830 5831 5832 5832 5833 5833 5833 5834 5833 5833 5833 5832 5832 5831 5830 5830 5829 5828 5827 5826 5825 5824 5822 5821 5819 5818 5816 5814 5812 5810
5812 5814 5815 5816 5817 5818 5820 5821 5822 5823 5825 5826 5827 5827 5829 5829 5830 5830 5831 5831 5831 5831 5831 5831 5830 5830 5829 5828 5827 5826 5826 5825 5823 5822 5821 5820 5819 5817 5816 5814 5812 5811 5809 5807
5811 5813 5814 5815 5816 5817 5818 5819 5820 5821 5822 5824 5824 5826 5826 5827 5827 5828 5828 5828 5829 5828 5828 5828 5827 5827 5826 5825 5824 5823 5822 5821 5820 5818 5817 5816 5815 5813 5811 5810 5808 5807 5805 5803
5809 5811 5812 5813 5814 5815 5817 5818 5818 5819 5820 5821 5822 5824 5823 5824 5825 5825 5825 5825 5825 5825 5825 5824 5824 5823 5822 5821 5820 5819 5817 5816 5815 5814 5813 5811 5810 5808 5807 5805 5803 5802 5800 5798
5807 5808 5810 5811 5812 5813 5816 5815 5815 5816 5817 5818 5819 5820 5820 5821 5821 5821 5821 5821 5821 5821 5821 5820 5819 5818 5817 5816 5815 5814 5812 5811 5810 5808 5807 5806 5804 5802 5801 5799 5798 5796 5794 5793
5804 5806 5807 5808 5808 5810 5811 5812 5812 5813 5814 5814 5815 5816 5816 5817 5817 5817 5817 5817 5817 5816 5816 5815 5814 5813 5812 5811 5809 5808 5807 5805 5804 5802 5801 5799 5798 5796 5794 5792 5791 5789 5787 5786
5801 5802 5804 5804 5805 5806 5809 5808 5808 5810 5810 5811 5811 5811 5812 5812 5812 5813 5812 5812 5811 5811 5810 5809 5808 5807 5806 5805 5803 5802 5800 5798 5797 5795 5794 5792 5790 5788 5787 5785 5783 5781 5779 5778
5797 5798 5799 5799 5800 5801 5803 5803 5804 5806 5807 5806 5806 5806 5807 5807 5807 5807 5806 5806 5805 5805 5804 5803 5802 5800 5799 5798 5796 5794 5793 5791 5789 5787 5785 5783 5782 5780 5778 5776 5774 5772 5770 5769
5792 5793 5794 5794 5795 5798 5797 5798 5799 5800 5799 5800 5800 5800 5801 5801 5800 5800 5800 5799 5798 5798 5796 5795 5794 5793 5791 5789 5788 5786 5784 5783 5780 5778 5776 5774 5772 5770 5768 5766 5764 5762 5760 5758
5786 5788 5788 5790 5791 5791 5791 5792 5792 5793 5793 5793 5793 5794 5794 5793 5793 5793 5792 5792 5791 5790 5788 5787 5785 5784 5782 5780 5778 5777 5775 5772 5770 5768 5766 5763 5761 5758 5756 5754 5752 5750 5748 5746
5780 5780 5781 5782 5783 5783 5784 5784 5785 5785 5786 5786 5786 5786 5786 5786 5785 5785 5784 5783 5782 5781 5779 5778 5776 5774 5772 5770 5768 5766 5764 5761 5759 5756 5754 5751 5748 5746 5743 5741 5739 5737 5735 5733
5773 5773 5773 5774 5775 5776 5776 5777 5777 5778 5778 5778 5778 5777 5777 5777 5776 5775 5774 5773 5772 5771 5769 5767 5766 5764 5761 5759 5757 5754 5751 5749 5747 5744 5741 5738 5735 5732 5730 5727 5724 5722 5720 5718
5764 5765 5765 5766 5767 5768 5768 5768 5769 5769 5769 5769 5769 5768 5767 5767 5766 5765 5764 5763 5761 5759 5758 5756 5754 5751 5749 5747 5744 5741 5738 5736 5733 5730 5727 5724 5721 5718 5714 5711 5709 5706 5704 5702